Location: Whitetail Observatory
(30.5740°N, 97.7628°W)
Time: 02:41:30
(UTC-05:00)

ISS - Visible Passes

Search period start: 26 September 2021 00:00
Search period end: 06 October 2021 00:00
Orbit: 417 x 422 km, 51.6° (Epoch: 26 September)

Date Brightness Start Highest point End Pass type
(mag) Time Alt. Az. Time Alt. Az. Time Alt. Az.
03 Oct -0.9 21:12:22 10° NNW 21:12:58 14° NNW 21:12:58 14° NNW visible
04 Oct -2.2 20:25:27 10° NNW 20:27:49 22° NNE 20:27:49 22° NNE visible
05 Oct -1.6 19:38:51 10° N 19:40:42 14° NE 19:42:33 10° ENE visible
05 Oct -1.2 21:14:27 10° NW 21:15:48 22° WNW 21:15:48 22° WNW visible
